Simultaneous Nadir Overpasses (SNOs) Predictions

Prediction of SNOs between AQUA and GOES-15 Satellite Orbit:

Table of predicted SNOs for the next 14.0 days since TLE Epoch: 2/8/2014
Index Date Time (AQUA) AQUA Lat,Lon GOES-15 Lat,Lon Distance(km) Time Diff (sec)
1 02/09/2014 10:20:22 -0.98,-131.24 -0.10,-135.40 472.67 80
2 02/09/2014 22:41:47 -0.12,-136.43 0.10,-135.41 116.38 80
3 02/11/2014 22:29:39 0.53,-133.49 0.09,-135.41 218.79 80
4 02/12/2014 10:50:55 0.59,-138.65 -0.09,-135.40 369.00 80
5 02/14/2014 10:38:46 -0.05,-135.70 -0.08,-135.39 34.26 80
6 02/16/2014 10:26:36 -0.66,-132.74 -0.08,-135.38 300.50 80
7 02/16/2014 22:48:00 -0.48,-137.92 0.08,-135.38 289.14 80
8 02/18/2014 22:35:50 0.18,-134.97 0.08,-135.37 45.13 80
9 02/20/2014 22:23:39 0.81,-132.01 0.08,-135.34 378.81 80
10 02/21/2014 10:44:54 0.33,-137.16 -0.07,-135.33 209.01 80




NCC Satellite Simultaneous Nadir Overpasses (SNOs) Prediction Service
